Starlink 3548

operational
NORAD ID: 51864 Int'l Des: 2022-022 Owner: SPXS Country: US Constellation: starlink
LEOCIRCULAR

Starlink 3548について

説明を読み込み中...

リアルタイム位置

3D地球を読み込み中...

次回通過

高度履歴

Altitude vs Time

uPlot chart will show altitude changes over time

軌道要素

1 51864U 22022N 26036.71611666 .00001484 00000-0 11127-3 0 9995
2 51864 53.2159 152.5806 0001399 87.6055 272.5097 15.08844943218336
Epoch: Feb 5, 2026 • Age: 13 hours

現在のステータス

高度 540.2 km
速度 7.60 km/s
衛星直下点 24.60°N, 75.34°E
打ち上げ日 Mar 3, 2022
運用期間 3.9 years
タイプ internet

技術仕様

分類 Payload
質量 297.00 kg
乾燥質量 275.00 kg
総質量 297.00 kg
長さ 0.20 m
直径 2.80 m
スパン 9.00 m
形状 Box + pan
製造者 SPXS
バスタイプ Starlink
フェーズステータス In Orbit
所有者/国 SPXS/US

大規模コンステレーション

Loading constellations...